Waarnemingen

Advertentie
Mijn weer
San Sebastian/Igueldo, Spanje (8027): temperatuur & dauwpunt: 14.06.2018 17:00:00 - 20.06.2018 17:00:00 (CEST)San Sebastian/Igueldo, Spanje (8027): windsnelheid: 14.06.2018 17:00:00 - 20.06.2018 17:00:00 (CEST)San Sebastian/Igueldo, Spanje (8027): windrichting: 14.06.2018 17:00:00 - 20.06.2018 17:00:00 (CEST)San Sebastian/Igueldo, Spanje (8027): luchtdruk: 14.06.2018 17:00:00 - 20.06.2018 17:00:00 (CEST)San Sebastian/Igueldo, Spanje (8027): zicht: 14.06.2018 17:00:00 - 20.06.2018 17:00:00 (CEST)
Datum & Tijd tt [°C] td [°C] ff [km/u] ff [kn] dd ppp [hPa] vv [km]
20.06.2018 17:00:00 19,8 18,3 16 9 N 1018,1 5
20.06.2018 16:00:00 - - - - - - -
20.06.2018 15:00:00 - - - - - - -
20.06.2018 14:00:00 20,6 17,0 13 7 NO 1018,6 40
20.06.2018 13:00:00 - - - - - - -
20.06.2018 12:00:00 - - - - - - -
20.06.2018 11:00:00 19,0 17,3 4 2 NNW 1018,6 20
20.06.2018 10:00:00 - - - - - - -
20.06.2018 09:00:00 - - - - - - -
20.06.2018 08:00:00 16,5 16,2 0 0 N 1018,5 20
20.06.2018 07:00:00 - - - - - - -
20.06.2018 06:00:00 - - - - - - -
20.06.2018 05:00:00 16,5 15,9 4 2 N 1018,6 45
20.06.2018 04:00:00 - - - - - - -
20.06.2018 03:00:00 - - - - - - -
20.06.2018 02:00:00 16,5 15,7 8 4 ZW 1020,3 50
20.06.2018 01:00:00 - - - - - - -
20.06.2018 00:00:00 - - - - - - -
19.06.2018 23:00:00 17,4 16,1 4 2 WZW 1021,0 50
19.06.2018 22:00:00 - - - - - - -
19.06.2018 21:00:00 - - - - - - -
19.06.2018 20:00:00 18,2 15,8 5 3 ONO 1021,4 45
19.06.2018 19:00:00 - - - - - - -
19.06.2018 18:00:00 - - - - - - -
19.06.2018 17:00:00 18,7 16,1 11 6 NO 1022,8 40
19.06.2018 16:00:00 - - - - - - -
19.06.2018 15:00:00 - - - - - - -
19.06.2018 14:00:00 17,5 15,5 13 7 NO 1023,9 20
19.06.2018 13:00:00 - - - - - - -
19.06.2018 12:00:00 - - - - - - -
19.06.2018 11:00:00 16,6 15,3 8 4 ONO 1024,7 20
19.06.2018 10:00:00 - - - - - - -
19.06.2018 09:00:00 - - - - - - -
19.06.2018 08:00:00 15,8 15,0 8 4 NO 1025,6 15
19.06.2018 07:00:00 - - - - - - -
19.06.2018 06:00:00 - - - - - - -
19.06.2018 05:00:00 15,6 14,1 9 5 N 1025,6 20
19.06.2018 04:00:00 - - - - - - -
19.06.2018 03:00:00 - - - - - - -
19.06.2018 02:00:00 15,7 13,7 11 6 NNO 1026,5 30
19.06.2018 01:00:00 - - - - - - -
19.06.2018 00:00:00 - - - - - - -
18.06.2018 23:00:00 15,8 15,8 9 5 NNO 1026,8 10
18.06.2018 22:00:00 - - - - - - -
18.06.2018 21:00:00 - - - - - - -
18.06.2018 20:00:00 15,9 15,9 11 6 NO 1026,6 0,2
18.06.2018 19:00:00 - - - - - - -
18.06.2018 18:00:00 - - - - - - -
18.06.2018 17:00:00 16,6 16,0 18 10 NNO 1026,9 0,1
18.06.2018 16:00:00 - - - - - - -
18.06.2018 15:00:00 - - - - - - -
18.06.2018 14:00:00 16,3 15,3 11 6 NNO 1026,9 1,0
18.06.2018 13:00:00 - - - - - - -
18.06.2018 12:00:00 - - - - - - -
18.06.2018 11:00:00 15,1 14,5 4 2 W 1027,2 0,5
18.06.2018 10:00:00 - - - - - - -
18.06.2018 09:00:00 - - - - - - -
18.06.2018 08:00:00 15,4 13,2 5 3 N 1026,5 15
18.06.2018 07:00:00 - - - - - - -
18.06.2018 06:00:00 - - - - - - -
18.06.2018 05:00:00 14,9 12,8 5 3 WNW 1026,3 30
18.06.2018 04:00:00 - - - - - - -
18.06.2018 03:00:00 - - - - - - -
18.06.2018 02:00:00 14,7 12,4 8 4 N 1026,5 40
18.06.2018 01:00:00 - - - - - - -
18.06.2018 00:00:00 - - - - - - -
17.06.2018 23:00:00 15,2 12,9 2 1 WNW 1026,5 40
17.06.2018 22:00:00 - - - - - - -
17.06.2018 21:00:00 - - - - - - -
17.06.2018 20:00:00 18,2 13,5 5 3 NO 1025,6 30
17.06.2018 19:00:00 - - - - - - -
17.06.2018 18:00:00 - - - - - - -
17.06.2018 17:00:00 18,2 14,1 13 7 NO 1025,4 40
17.06.2018 16:00:00 - - - - - - -
17.06.2018 15:00:00 - - - - - - -
17.06.2018 14:00:00 18,0 14,7 15 8 NNO 1025,4 25
17.06.2018 13:00:00 - - - - - - -
17.06.2018 12:00:00 - - - - - - -
17.06.2018 11:00:00 16,3 14,0 5 3 N 1025,0 30
17.06.2018 10:00:00 - - - - - - -
17.06.2018 09:00:00 - - - - - - -
17.06.2018 08:00:00 14,1 13,8 9 5 NW 1024,1 0,2
17.06.2018 07:00:00 - - - - - - -
17.06.2018 06:00:00 - - - - - - -
17.06.2018 05:00:00 14,8 13,0 5 3 NW 1023,5 30
17.06.2018 04:00:00 - - - - - - -
17.06.2018 03:00:00 - - - - - - -
17.06.2018 02:00:00 14,8 12,7 5 3 N 1024,1 30
17.06.2018 01:00:00 - - - - - - -
17.06.2018 00:00:00 - - - - - - -
16.06.2018 23:00:00 15,5 11,1 4 2 NO 1023,1 30
16.06.2018 22:00:00 - - - - - - -
16.06.2018 21:00:00 - - - - - - -
16.06.2018 20:00:00 17,3 12,4 8 4 NO 1021,8 30
16.06.2018 19:00:00 - - - - - - -
16.06.2018 18:00:00 - - - - - - -
16.06.2018 17:00:00 18,2 12,4 8 4 O 1020,9 40
16.06.2018 16:00:00 - - - - - - -
16.06.2018 15:00:00 - - - - - - -
16.06.2018 14:00:00 17,8 12,9 9 5 ONO 1021,1 11
16.06.2018 13:00:00 - - - - - - -
16.06.2018 12:00:00 - - - - - - -
16.06.2018 11:00:00 14,2 13,9 5 3 ONO 1020,7 4,0
16.06.2018 10:00:00 - - - - - - -
16.06.2018 09:00:00 - - - - - - -
16.06.2018 08:00:00 14,4 14,1 11 6 NNO 1020,0 6
16.06.2018 07:00:00 - - - - - - -
16.06.2018 06:00:00 - - - - - - -
16.06.2018 05:00:00 14,8 14,5 13 7 N 1019,5 -
16.06.2018 04:00:00 - - - - - - -
16.06.2018 03:00:00 - - - - - - -
16.06.2018 02:00:00 15,2 15,2 15 8 N 1020,3 -
16.06.2018 01:00:00 - - - - - - -
16.06.2018 00:00:00 - - - - - - -
15.06.2018 23:00:00 15,6 15,6 11 6 NO 1020,3 -
15.06.2018 22:00:00 - - - - - - -
15.06.2018 21:00:00 - - - - - - -
15.06.2018 20:00:00 16,0 15,7 13 7 N 1020,2 -
15.06.2018 19:00:00 - - - - - - -
15.06.2018 18:00:00 - - - - - - -
15.06.2018 17:00:00 16,0 15,0 8 4 NNO 1020,0 6
15.06.2018 16:00:00 - - - - - - -
15.06.2018 15:00:00 - - - - - - -
15.06.2018 14:00:00 16,4 13,5 5 3 N 1019,6 25
15.06.2018 13:00:00 - - - - - - -
15.06.2018 12:00:00 - - - - - - -
15.06.2018 11:00:00 15,4 12,5 5 3 N 1019,6 30
15.06.2018 10:00:00 - - - - - - -
15.06.2018 09:00:00 - - - - - - -
15.06.2018 08:00:00 12,8 11,9 4 2 ZW 1019,5 35
15.06.2018 07:00:00 - - - - - - -
15.06.2018 06:00:00 - - - - - - -
15.06.2018 05:00:00 12,5 11,6 4 2 W 1019,5 45
15.06.2018 04:00:00 - - - - - - -
15.06.2018 03:00:00 - - - - - - -
15.06.2018 02:00:00 13,7 12,8 2 1 NNO 1020,4 50
15.06.2018 01:00:00 - - - - - - -
15.06.2018 00:00:00 - - - - - - -
14.06.2018 23:00:00 14,2 11,4 4 2 O 1020,7 50
14.06.2018 22:00:00 - - - - - - -
14.06.2018 21:00:00 - - - - - - -
14.06.2018 20:00:00 17,0 13,9 8 4 NO 1020,3 50
14.06.2018 19:00:00 - - - - - - -
14.06.2018 18:00:00 - - - - - - -
14.06.2018 17:00:00 16,8 12,9 13 7 NNO 1020,8 30

tt = temperatuur
td = dauwpunt
ff = windsnelheid
dd = windrichting
ppp = luchtdruk
vv = zicht

Weerstations in de omgeving